Location: Horn� Jelenec
(48.8596°N, 19.1518°E)
Time: 18:26:07
(UTC+00:00)

Daily predictions for brighter satellites

Satellite Brightness Start Highest point End
(mag) Time Altitude Azimuth Time Altitude Azimuth Time Altitude Azimuth
CZ-4 R/B 4.4 16:44:46 10° SSE 16:48:52 74° ENE 16:53:02 10° N
FengYun 1-2 T 4.4 16:45:25 10° SSE 16:51:03 83° WSW 16:56:40 10° NNW
H-2A R/B 3.4 16:47:39 10° ESE 16:51:39 22° ENE 16:55:41 10° N
STARLINK-1024 3.6 16:47:48 10° WSW 16:51:57 84° SSE 16:56:07 10° ENE
STARLINK 1040 3.7 16:55:58 10° WNW 16:58:37 35° N 17:01:15 10° ENE
Timation 2 Rocket 4.4 16:52:27 10° NNW 16:59:10 51° NE 17:05:50 10° SE
Cosmos 2233 Rocket 4.0 16:53:09 10° S 16:59:18 80° E 17:05:32 10° NNE
STARLINK-22 4.0 16:57:08 10° WNW 17:00:16 39° N 17:03:25 10° ENE
Meteor 1-27 Rocket 4.2 16:55:50 10° NNW 17:01:23 69° W 17:07:00 10° S
STARLINK-41 4.0 16:58:39 10° WNW 17:01:47 38° N 17:04:55 10° ENE
STARLINK-1032 3.6 16:57:46 10° WSW 17:01:55 87° NNW 17:06:05 10° ENE
STARLINK-1016 3.9 16:58:52 10° W 17:02:09 45° N 17:05:27 10° ENE
STARLINK-1045 4.5 17:00:00 10° SSW 17:03:44 34° SE 17:07:28 10° ENE
STARLINK-1008 3.9 17:00:31 10° W 17:03:47 44° N 17:07:06 10° ENE
Cosmos 921 Rocket 4.0 16:59:28 10° SW 17:03:54 53° WNW 17:08:20 10° NNE
Cosmos 1470 Rocket 3.5 17:00:02 10° S 17:04:22 70° E 17:08:47 10° NNE
STARLINK-24 4.2 17:00:45 10° W 17:04:39 48° N 17:08:35 10° ENE
COSMOS 2487 2.4 17:01:36 10° NNW 17:05:03 65° ENE 17:08:29 10° SSE
Cosmos 2219 4.4 17:00:49 10° NNW 17:05:33 25° NE 17:10:14 10° E
STARLINK-75 4.0 17:02:51 10° WNW 17:06:02 39° N 17:09:07 11° ENE
STARLINK-58 4.0 17:02:57 10° WNW 17:06:21 41° N 17:09:42 10° ENE
STARLINK-1011 3.7 17:02:43 10° WSW 17:06:53 83° NNW 17:11:03 10° ENE
STARLINK-1025 3.9 17:04:40 10° W 17:07:57 43° N 17:11:11 10° ENE
STARLINK-62 4.1 17:04:40 10° WNW 17:08:04 41° N 17:11:20 11° ENE
STARLINK-1035 3.8 17:03:55 10° WSW 17:08:11 78° NNW 17:12:28 10° ENE
STARLINK-43 3.3 17:04:47 10° WNW 17:08:30 82° NNE 17:12:13 10° ESE
Lacrosse 5 rocket 2.7 17:04:29 10° NW 17:08:34 32° NNE 17:12:32 11° ENE
STARLINK-1050 4.3 17:04:54 10° SSW 17:08:43 37° SE 17:12:19 11° ENE
NOSS 2-3 (E) 3.8 17:04:28 10° SW 17:08:50 87° NW 17:14:08 10° NE
STARLINK-1031 3.7 17:04:51 10° WSW 17:08:58 76° NNW 17:13:04 10° ENE
YAOGAN 6 4.5 17:06:19 10° SSW 17:09:31 35° W 17:12:46 10° NNW
Cosmos 1862 Rocket 4.0 17:05:18 10° NNW 17:09:38 69° W 17:13:58 10° S
STARLINK-34 4.1 17:06:18 10° WNW 17:09:42 41° N 17:12:53 11° ENE
STARLINK-1017 3.9 17:06:46 10° W 17:10:03 43° N 17:13:12 11° ENE
Okean 1-7 3.5 17:06:04 10° N 17:10:10 40° ENE 17:14:16 10° SE
Okean 1 3.9 17:06:36 10° N 17:10:17 34° ENE 17:13:56 10° SE
STARLINK-1036 3.7 17:07:43 10° WSW 17:11:52 79° NNW 17:15:53 11° ENE
Lacrosse 5 2.9 17:08:18 10° S 17:12:30 27° SE 17:16:23 12° ENE
COSMO-SKYMED 1 2.8 17:08:47 10° N 17:13:09 77° WNW 17:17:28 10° SSW
HJ-1C 4.0 17:10:16 10° SE 17:13:16 34° ENE 17:16:18 10° N
STARLINK-1055 4.2 17:09:48 10° SSW 17:13:40 40° SE 17:17:05 13° ENE
USA 234 4.0 17:08:42 10° ENE 17:14:51 45° N 17:21:00 10° WNW
STARLINK-81 4.2 17:11:28 10° W 17:15:23 47° N 17:18:55 12° ENE
Gbstr 26 Del rocket 3.4 17:11:49 10° SW 17:15:37 45° SE 17:19:33 13° ENE
STARLINK-1048 4.0 17:13:07 10° W 17:16:24 42° N 17:19:17 13° ENE
STARLINK-1044 3.7 17:12:42 10° WSW 17:16:51 76° NNW 17:20:40 12° ENE
STARLINK-54 4.2 17:13:21 10° W 17:17:15 46° N 17:20:41 13° ENE
Cosmos 405 3.2 17:14:35 10° N 17:18:04 48° ENE 17:21:31 10° SSE
STARLINK-1049 4.0 17:15:15 10° W 17:18:32 42° N 17:21:20 13° ENE
STARLINK-1022 4.1 17:14:42 10° SW 17:18:37 43° SE 17:21:51 14° ENE
STARLINK-77 4.2 17:14:48 10° W 17:18:43 47° N 17:22:06 13° ENE
STARLINK-1027 3.9 17:14:36 10° WSW 17:18:51 69° NNW 17:22:43 12° ENE
Cosmos 2369 Rocket 2.8 17:13:23 10° SW 17:18:58 60° WNW 17:24:39 10° NNE
STARLINK-25 4.2 17:16:27 10° W 17:20:22 46° N 17:23:41 14° ENE
STARLINK-1051 4.0 17:17:25 10° W 17:20:43 41° N 17:23:25 14° ENE
STARLINK-71 4.2 17:18:21 10° W 17:22:15 46° N 17:25:28 14° ENE
STARLINK-1028 4.0 17:19:04 10° W 17:22:21 41° N 17:25:00 14° ENE
STARLINK-1042 4.0 17:19:38 10° SW 17:23:36 46° SE 17:26:39 16° ENE
STARLINK-79 4.2 17:19:48 10° W 17:23:42 46° N 17:26:53 15° ENE
Cosmos 1898 Rocket 3.4 17:18:36 10° NNW 17:23:47 68° ENE 17:28:56 10° SSE
NOSS 2-3 (D) 4.0 17:19:37 10° SW 17:24:01 73° NW 17:29:19 10° NE
Cosmos 44 Rocket 3.2 17:19:42 10° NW 17:24:28 73° NE 17:29:15 10° SE
STARLINK-1021 4.0 17:21:16 10° WNW 17:24:33 41° N 17:27:06 15° ENE
Cosmos 2242 Rocket 3.8 17:20:20 10° NNW 17:24:54 82° W 17:29:29 10° S
STARLINK-78 4.2 17:21:29 10° W 17:25:23 46° N 17:28:29 15° ENE
Meteor 1-19 Rocket 4.4 17:20:26 10° N 17:26:04 50° ENE 17:31:31 10° SSE
STARLINK-1037 3.8 17:22:36 10° WSW 17:26:44 69° NNW 17:30:09 15° ENE
STARLINK-1019 4.0 17:23:28 10° WNW 17:26:46 41° N 17:29:13 16° ENE
USA 229 DEB 4.5 17:20:29 10° WSW 17:26:54 50° NW 17:33:42 10° NE
USA 229 4.5 17:20:36 10° WSW 17:27:01 50° NW 17:33:48 10° NE
STARLINK-57 4.2 17:23:15 10° WNW 17:27:08 46° N 17:30:09 16° ENE
Cosmos 1703 Rocket 3.5 17:22:47 10° N 17:27:15 69° ENE 17:31:43 10° SSE
Cosmos 1763 Rocket 3.9 17:22:32 10° S 17:27:21 39° ESE 17:32:16 10° NE
SJ 16-02 1.3 17:23:58 10° NNW 17:28:23 66° ENE 17:32:44 10° SSE
STARLINK-1056 3.9 17:24:33 10° SW 17:28:33 49° SE 17:31:26 18° ENE
STARLINK-49 4.2 17:24:48 10° WNW 17:28:41 46° N 17:31:39 16° ENE
STARLINK-1012 4.0 17:25:41 10° WNW 17:28:59 41° N 17:31:21 17° ENE
CENTAUR R/B 3.9 17:22:32 10° NW 17:29:22 36° NNE 17:35:27 16° E
Cosmos 1602 4.1 17:25:50 10° SSE 17:29:27 39° E 17:33:04 10° NNE
ARGOS 3.8 17:24:44 10° SE 17:29:35 35° ENE 17:34:27 10° N
STARLINK-48 3.8 17:26:29 10° WNW 17:30:19 55° NNE 17:32:51 20° E
STARLINK-27 4.2 17:26:26 10° WNW 17:30:20 45° N 17:33:13 17° ENE
Meteor 1-25 Rocket 4.2 17:25:03 10° S 17:30:39 68° E 17:36:15 10° NNE
STARLINK-1059 3.9 17:27:41 10° WSW 17:31:49 66° NNW 17:35:01 16° ENE
STARLINK-74 4.2 17:28:07 10° WNW 17:32:01 45° N 17:34:50 17° ENE
STARLINK-1026 4.0 17:30:08 10° WNW 17:33:25 40° N 17:35:36 18° ENE
Cosmos 1513 Rocket 4.5 17:27:31 10° S 17:33:29 59° E 17:39:34 10° NNE
STARLINK-1054 3.8 17:29:28 10° SW 17:33:30 53° SE 17:36:12 19° ENE
STARLINK-39 4.2 17:29:46 10° WNW 17:33:40 45° N 17:36:24 18° ENE
NOSS 3-1 (A) 4.0 17:28:18 10° WSW 17:33:54 58° NW 17:40:31 10° NE
USA 186 2.7 17:34:04 22° ENE 17:34:04 22° ENE 17:36:13 10° NNE
Resurs 01 Rocket 3.4 17:33:49 14° ENE 17:33:57 14° ENE 17:36:08 10° NNE
STARLINK-1023 4.0 17:30:59 10° WNW 17:34:07 38° N 17:36:06 19° ENE
Cosmos 1939 Rocket 3.5 17:30:58 10° S 17:35:04 63° WSW 17:39:12 10° NNW
STARLINK-31 4.2 17:31:29 10° WNW 17:35:22 45° N 17:38:02 18° ENE
STARLINK-1013 4.0 17:32:22 10° WNW 17:35:40 40° N 17:37:46 19° ENE
SPOT 3 Rocket 4.5 17:32:31 15° ESE 17:35:52 28° ENE 17:40:17 10° N
STARLINK-61 4.1 17:32:20 10° WNW 17:36:07 45° N 17:38:30 20° ENE
STARLINK-1057 3.9 17:32:41 10° W 17:36:49 64° NNW 17:39:48 18° ENE
STARLINK-26 3.5 17:33:43 10° WNW 17:37:08 53° NNE 17:38:56 24° E
Cosmos 1869 Rocket 3.8 17:33:01 10° SSE 17:37:10 43° E 17:41:18 10° NNE
STARLINK-69 4.2 17:33:20 10° WNW 17:37:14 45° N 17:39:48 19° ENE
CSL-04 Rocket 4.1 17:32:16 10° S 17:37:45 67° WSW 17:43:12 10° NNW
STARLINK-1009 4.0 17:34:36 10° WNW 17:37:54 40° N 17:39:54 20° ENE
STARLINK-1062 3.8 17:34:24 10° SW 17:38:27 57° SSE 17:40:59 22° ENE
STARLINK-21 4.2 17:34:49 10° WNW 17:38:43 45° N 17:41:14 20° ENE
STARLINK-1015 4.0 17:36:52 10° WNW 17:40:10 40° N 17:42:04 21° ENE
STARLINK-45 4.2 17:36:43 10° WNW 17:40:36 45° N 17:43:01 21° ENE
STARLINK-1034 3.9 17:37:40 10° W 17:41:47 61° NNW 17:44:34 20° ENE
STARLINK-70 4.2 17:38:16 10° WNW 17:42:10 45° N 17:44:31 21° ENE
CZ-2D R/B 4.2 17:39:00 10° S 17:42:47 51° W 17:46:36 10° NNW
STARLINK-1053 3.7 17:39:21 10° SW 17:43:26 61° SSE 17:45:46 24° ENE
STARLINK-76 4.2 17:39:48 10° WNW 17:43:42 45° N 17:45:59 22° ENE
ATLAS 3B R/B 3.9 17:38:37 10° NW 17:44:12 27° NNE 17:48:16 16° ENE
Cosmos 858 Rocket 4.4 17:39:13 10° NNW 17:44:28 75° ENE 17:49:40 10° SSE
CZ-2C R/B 3.6 17:39:33 10° SE 17:45:01 45° ENE 17:50:20 10° N
STARLINK-1014 4.1 17:41:53 10° WNW 17:45:16 41° N 17:47:04 22° NE
STARLINK-23 4.2 17:41:28 10° WNW 17:45:21 45° N 17:47:34 22° ENE
Cosmos 1891 Rocket 4.4 17:40:12 10° S 17:46:23 74° E 17:52:46 10° NNE
CZ-4 R/B 3.4 17:42:43 10° SSW 17:46:28 32° W 17:50:13 10° NNW
STARLINK-1068 4.0 17:42:40 10° W 17:46:47 59° NNW 17:49:22 21° ENE
STARLINK-80 3.3 17:42:58 10° WNW 17:46:48 79° NNE 17:48:42 28° ESE
Cosmos 389 Rocket 4.4 17:44:26 10° NNE 17:45:53 16° NE 17:45:53 16° NE
STARLINK-32 4.2 17:43:06 10° WNW 17:46:59 45° N 17:49:08 23° ENE
Cosmos 1570 Rocket 4.3 17:43:01 10° S 17:47:56 43° ESE 17:52:56 10° NE
STARLINK-1061 3.6 17:44:17 10° SW 17:48:23 65° SSE 17:50:32 26° ENE
STARLINK-40 4.2 17:44:47 10° WNW 17:48:40 45° N 17:50:45 24° ENE
STARLINK-44 4.2 17:46:26 10° WNW 17:50:20 45° N 17:52:20 25° ENE
Lacrosse 4 Rocket 4.3 17:49:17 10° NW 17:50:30 11° NNW 17:51:43 10° N
YAOGAN 1 4.1 17:46:35 10° SSW 17:50:37 38° W 17:54:42 10° NNW
STARLINK-37 4.2 17:48:14 10° WNW 17:52:08 45° N 17:54:02 26° ENE
STARLINK-1067 3.6 17:49:15 10° SW 17:53:22 69° SSE 17:55:20 29° ENE
Ariane Rocket 2.9 17:48:16 10° SSE 17:53:22 81° ENE 17:58:31 10° NNW
STARLINK-36 4.2 17:49:45 10° WNW 17:53:38 45° N 17:55:30 26° ENE
Cosmos 540 Rocket 4.0 17:49:13 10° SSE 17:53:46 33° ESE 17:58:19 10° NE
STARLINK-64 3.9 17:50:22 10° WNW 17:53:50 43° N 17:55:09 30° ENE
SJ-6B 3.1 17:53:43 30° ESE 17:54:57 40° ENE 17:58:33 10° N
STARLINK-33 3.6 17:51:58 10° WNW 17:55:08 44° N 17:56:01 34° NE
Okean 3 3.8 17:51:07 10° N 17:55:08 41° ENE 17:56:53 27° SE
STARLINK-68 4.2 17:51:38 10° WNW 17:55:32 45° N 17:57:17 27° ENE
Cosmos 489 Rocket 4.4 17:49:23 10° SSW 17:55:44 83° ESE 18:02:05 10° NNE
STARLINK-55 3.6 17:53:20 10° WNW 17:56:31 45° NNE 17:57:20 36° NE
STARLINK-1060 4.1 17:52:41 10° W 17:56:46 55° NNW 17:58:55 26° NE
STARLINK-63 4.2 17:53:11 10° WNW 17:57:05 45° N 17:58:46 28° ENE
STARLINK-66 3.6 17:54:14 10° WNW 17:57:24 45° NNE 17:58:12 36° NE
FREGAT/IRIS 2.4 17:57:40 54° ENE 17:57:40 54° ENE 18:00:14 10° N
STARLINK-28 3.5 17:54:56 10° WNW 17:58:07 46° NNE 17:58:52 38° NE
Cosmos 990 Rocket 4.3 17:53:02 10° NNW 17:58:09 66° WSW 18:03:14 10° S
STARLINK-1058 3.5 17:54:11 10° SW 17:58:19 74° SSE 18:00:06 33° ENE
STARLINK-35 4.2 17:54:44 10° WNW 17:58:38 45° N 18:00:16 29° ENE
STARLINK-42 3.6 17:55:49 10° WNW 17:58:56 43° N 17:59:38 37° NE
STARLINK-51 4.2 17:56:24 10° WNW 18:00:18 45° N 18:01:52 30° ENE
STARLINK-1029 3.9 17:58:01 10° WNW 18:01:01 37° N 18:01:47 31° NNE
STARLINK-1007 4.0 17:58:35 10° WNW 18:01:47 39° N 18:02:38 32° NE
STARLINK-1030 4.1 17:57:43 10° W 18:01:47 54° NNW 18:03:43 28° NE
Cosmos 1943 Rocket 4.1 17:57:12 10° WSW 18:01:54 27° NW 18:06:34 10° NNE
STARLINK-30 4.2 17:58:04 10° WNW 18:01:58 45° N 18:03:27 31° NE
Cosmos 2297 Rocket 2.7 17:57:26 10° NNW 18:02:49 41° NE 18:04:59 30° E
STARLINK-1043 3.5 17:59:09 10° WSW 18:03:18 78° SSE 18:04:53 36° ENE
STARLINK-72 4.2 17:59:45 10° WNW 18:03:39 46° N 18:05:03 32° NE
SJ-11-01 4.3 17:59:18 10° SSE 18:03:59 84° WSW 18:08:41 10° NNW
APEX 4.4 18:00:04 10° S 18:04:52 46° ESE 18:10:49 10° NE
Nadezhda 4 Rocket 3.9 17:58:53 10° N 18:05:14 80° E 18:11:35 10° SSE
STARLINK-50 4.2 18:01:24 10° WNW 18:05:18 46° N 18:06:39 33° NE
SL-08 RB Rocket 4.0 18:04:26 32° ESE 18:05:56 44° ENE 18:10:12 10° N
STARLINK-1020 4.1 18:02:42 10° W 18:06:46 53° N 18:08:29 30° NE
STARLINK-59 4.2 18:03:10 10° WNW 18:07:04 46° N 18:08:19 34° NE
STARLINK-1065 3.5 18:03:57 10° WSW 18:08:05 82° SSE 18:09:30 40° ENE
STARLINK-56 4.2 18:04:44 10° WNW 18:08:38 46° N 18:09:50 35° NE
IRS-1A Rocket 4.3 18:03:33 10° SSE 18:09:03 82° WSW 18:14:38 10° NNW
CZ-2C R/B 4.2 18:04:47 10° NNE 18:09:08 37° E 18:13:30 10° SSE
ATLAS 2AS CENTAUR R/B 4.5 18:04:12 10° SSE 18:06:08 15° SE 18:06:08 15° SE
STARLINK-73 4.1 18:06:23 10° WNW 18:10:17 46° N 18:11:25 36° NE
Cosmos 2026 Rocket 4.2 18:05:12 10° N 18:11:05 44° ENE 18:13:44 29° SE
STARLINK-1010 3.8 18:07:58 10° WNW 18:11:06 38° N 18:11:28 37° NNE
STARLINK-1052 4.2 18:07:43 10° W 18:11:46 51° N 18:13:16 33° NE
STARLINK-38 4.1 18:08:04 10° WNW 18:11:58 46° N 18:13:02 37° NE
Cosmos 1464 Rocket 4.2 18:06:26 10° SSW 18:12:48 76° W 18:19:14 10° N
Cosmos 1937 Rocket 3.8 18:07:42 10° NNW 18:12:55 68° WSW 18:18:04 10° S
STARLINK-1063 3.5 18:09:04 10° WSW 18:13:13 87° SSE 18:14:25 45° ENE
STARLINK-65 4.1 18:09:42 10° WNW 18:13:37 47° N 18:14:36 38° NE
STARLINK-1047 4.2 18:10:02 10° W 18:14:07 51° N 18:15:32 34° NE
ADEOS Rocket 3.9 18:07:06 10° NNE 18:14:52 71° WNW 18:22:25 10° SSW
Cosmos 1515 3.5 18:11:30 10° N 18:15:18 89° ENE 18:17:27 25° S
STARLINK-53 4.1 18:11:28 10° WNW 18:15:23 47° N 18:16:17 39° NE
MONITOR-E 4.3 18:16:07 55° NW 18:16:07 55° NW 18:18:22 10° NNW
Genesis I 3.0 18:12:24 10° NW 18:16:17 87° NE 18:17:06 54° SE
Meteor 1-5 Rocket 4.3 18:11:47 10° SSE 18:17:03 49° E 18:22:31 10° NNE
USA 238 DEB 3.8 18:10:59 10° NW 18:18:07 68° NE 18:21:52 31° ESE
STARLINK-1064 3.5 18:14:03 10° WSW 18:18:12 89° NNW 18:19:12 51° ENE
USA 238 3.8 18:11:05 10° NW 18:18:13 68° NE 18:21:55 32° ESE
STARLINK-1033 4.2 18:17:43 10° W 18:21:46 49° N 18:22:50 39° NE
Cosmos 2227 Rocket 2.4 18:16:30 10° NNW 18:22:01 50° NE 18:23:25 41° E
STARLINK-1041 3.5 18:19:02 10° WSW 18:23:11 85° NNW 18:23:59 57° ENE
SL-24 DEB 4.1 18:19:58 10° S 18:24:39 89° ENE 18:29:19 10° N
Cosmos 2221 Rocket 3.5 18:21:08 10° N 18:25:41 87° W 18:28:33 22° S
Cosmos 2082 4.3 18:22:41 10° NNW 18:28:01 37° NE 18:28:37 36° ENE
STARLINK-1038 3.6 18:23:59 10° WSW 18:28:08 81° NNW 18:28:45 63° NE
Cosmos 1674 Rocket 4.2 18:24:34 10° N 18:28:02 40° NE 18:28:02 40° NE
H-2A R/B 2.3 18:25:08 10° S 18:30:31 73° WSW 18:36:01 10° NNW
STARLINK-1024 4.2 18:27:45 10° W 18:31:47 48° N 18:32:25 43° NNE
STARLINK-1046 3.6 18:29:00 10° WSW 18:33:08 77° NNW 18:33:33 69° NNE
Cosmos 2034 Rocket 4.2 18:29:14 10° SSW 18:35:21 71° W 18:41:32 10° N
STARLINK-22 4.1 18:33:47 10° WNW 18:36:16 41° NNW 18:36:16 41° NNW
Cosmos 372 Rocket 3.9 18:32:15 10° NNW 18:37:33 87° ENE 18:39:10 46° SSE
STARLINK-1039 3.6 18:34:01 10° WSW 18:38:10 74° NNW 18:38:22 72° N
STARLINK-41 4.2 18:35:17 10° WNW 18:37:41 40° NW 18:37:41 40° NW
STARLINK-1016 4.3 18:36:08 10° WNW 18:38:43 38° NNW 18:38:43 38° NNW
STARLINK-1008 4.3 18:37:47 10° WNW 18:40:20 37° NNW 18:40:20 37° NNW
STARLINK-1032 4.2 18:37:46 10° W 18:41:48 47° N 18:41:59 46° N
STARLINK-75 4.3 18:39:37 10° WNW 18:41:58 40° NW 18:41:58 40° NW
STARLINK-1045 3.7 18:39:00 10° WSW 18:43:08 71° NNW 18:43:08 71° NNW
Resurs 1-3 3.7 18:44:37 64° NNE 18:44:37 64° NNE 18:48:30 10° N
STARLINK-58 4.2 18:40:35 10° WNW 18:43:17 43° NW 18:43:17 43° NW
STARLINK-24 4.1 18:40:15 10° WNW 18:43:51 52° N 18:43:51 52° N
STARLINK-62 4.3 18:42:18 10° WNW 18:44:55 42° NW 18:44:55 42° NW
STARLINK-1011 4.3 18:42:46 10° WNW 18:46:46 46° N 18:46:46 46° N
Cosmos 1428 Rocket 4.3 18:40:48 10° N 18:46:55 71° E 18:48:34 49° SE
STARLINK-34 4.4 18:43:55 10° WNW 18:46:29 41° NW 18:46:29 41° NW
STARLINK-1050 3.9 18:44:02 10° WSW 18:47:59 65° NW 18:47:59 65° NW
MetOp-A 4.0 18:46:49 52° SSE 18:48:11 84° ENE 18:53:35 10° NNW
Lacrosse 5 rocket 1.6 18:43:46 10° NW 18:48:11 72° N 18:48:11 72° N
STARLINK-1035 4.3 18:44:26 10° WNW 18:48:33 47° N 18:48:33 47° N
STARLINK-1031 4.3 18:44:49 10° WNW 18:48:37 45° N 18:48:37 45° N
Cosmos 2219 3.3 18:44:33 10° NNW 18:50:19 76° WSW 18:52:15 43° S
STARLINK-1036 4.4 18:47:46 10° WNW 18:51:32 45° NNW 18:51:32 45° NNW
Cosmos 1092 Rocket 4.2 18:46:43 10° NNW 18:53:04 73° W 18:58:47 13° S
STARLINK-1055 4.0 18:49:02 10° W 18:52:45 60° NW 18:52:45 60° NW
STARLINK-81 4.4 18:50:59 10° WNW 18:54:10 46° NNW 18:54:10 46° NNW
Lacrosse 5 1.9 18:49:59 10° WSW 18:55:05 78° NW 18:55:38 69° NNE
STARLINK-54 4.4 18:52:49 10° WNW 18:55:56 46° NW 18:55:56 46° NW
USA 234 3.7 18:55:21 39° ENE 18:57:12 49° NNE 19:03:27 10° WNW
STARLINK-1022 4.3 18:54:01 10° W 18:57:32 54° WNW 18:57:32 54° WNW
Cosmos 1634 Rocket 3.9 18:52:41 10° S 18:59:01 82° E 19:05:23 10° N
GP-B 4.1 19:01:33 39° N 19:01:33 39° N 19:04:22 10° N
Cosmos 2263 Rocket 3.9 18:56:20 10° N 18:59:45 20° NNE 18:59:45 20° NNE
CZ-2C R/B 4.2 18:55:09 10° NNE 18:57:07 22° NNE 18:57:07 22° NNE
Gbstr 26 Del rocket 3.4 18:58:05 10° W 19:02:07 67° NW 19:02:07 67° NW
Cosmos 1814 Rocket 4.2 18:57:21 10° SSW 19:02:27 69° WNW 19:07:36 10° NNE
STARLINK-1042 4.5 18:59:03 10° W 19:02:20 48° WNW 19:02:20 48° WNW
Meteor 2-13 Rocket 4.3 18:59:41 10° N 19:05:45 72° ENE 19:05:45 72° ENE
SJ 16-02 4.3 19:03:56 10° WNW 19:06:24 15° W 19:08:52 10° SW
NOSS 3-2 (A) 4.0 19:00:50 10° NW 19:08:18 78° SW 19:10:56 47° SSE
Cosmos 841 Rocket 4.0 19:03:30 10° SW 19:08:34 56° WNW 19:13:42 10° NNE
ARGOS 4.3 19:04:40 10° SSW 19:09:45 41° W 19:14:54 10° NNW
Resurs 01 Rocket 2.7 19:11:23 40° NNW 19:11:23 40° NNW 19:14:16 10° NNW
NOSS 3-2 (C) 3.9 19:04:45 10° NW 19:12:12 84° NE 19:13:51 61° SE
SPOT 3 Rocket 4.3 19:13:10 34° SSW 19:15:02 49° W 19:20:06 10° NNW
Meteor 1-11 Rocket 3.7 19:10:17 10° SSW 19:15:51 76° WNW 19:21:25 10° N
CENTAUR R/B 3.0 19:13:18 10° NW 19:21:15 81° NE 19:22:39 65° ESE
Cosmos 1125 Rocket 4.1 19:27:39 10° NNW 19:32:01 55° WNW 19:32:01 55° WNW
ATLAS 3B R/B 2.8 19:29:25 10° NW 19:35:31 62° NNE 19:35:31 62° NNE
Cosmos 2297 Rocket 3.3 19:41:38 10° NW 19:46:50 39° WSW 19:46:50 39° WSW
Terra 4.5 19:57:30 12° N 19:57:30 12° N 19:57:53 10° N
Cosmos 2227 Rocket 3.7 20:00:57 10° NW 20:05:17 31° W 20:05:17 31° W
USA 234 4.3 20:42:41 39° WNW 20:42:41 39° WNW 20:46:31 10° NW
Cosmos 2263 Rocket 4.3 20:39:37 10° NNW 20:41:27 21° NNW 20:41:27 21° NNW
CENTAUR R/B 4.4 21:04:33 10° NW 21:09:51 31° W 21:09:51 31° W
